Aktuell
News
Messwerte
Diagramme
Archiv
Wettervorhersage
Regen
Wettergefahren

Astro & Geo
Health
Pegel
Gästebuch
Kontakt
Impressum
Datenschutz
App

Leicht bewölkt bei 28.9 °C – Luftdruck: 1010.6 hPa – Wind: SSW 3.2 km/h
Messwerte von 22:02 Uhr; Warnsymbol: Datenbasis DWD; Wetterzustand powered by OpenWeatherMap, CC BY-SA 4.0
Übersicht
Heute
Gestern
Vor 1 Jahr
Info
Vor 1 Jahr
 
Messwerte von Donnerstag, 18.06.2020
Symbol
Zeitpunkt
Wetter-
zustand
Zeitpunkt
Temperatur
Zeitpunkt
Luftfeuchte
Taupunkt
Zeitpunkt
Luftdruck
Zeitpunkt
Wind
Zeitpunkt
Windböen
Max 15 Min.
Wind-
richtung
Zeitpunkt
Regen
Summe 1 h
Regenrate
Max 15 Min.
UV-Index
Max 15 Min.
Pegel Köln
Zeitpunkt
Warnlage
Zeitpunkt
00:15 Leichter Regen1 15.6 °C 93 %
14.5 °C
1009.6 hPa 1.4 km/h
1 Bft
4.7 km/h
1 Bft
OSO -
0.0 mm/h
0.0 270 cm
00:30 Leichter Regen4 15.5 °C 93 %
14.4 °C
1009.7 hPa 3.2 km/h
1 Bft
9.7 km/h
2 Bft
SSW -
0.0 mm/h
0.0 271 cm
00:45 Leichter Regen1 15.4 °C 93 %
14.3 °C
1009.7 hPa 4.7 km/h
1 Bft
9.7 km/h
2 Bft
SSW -
0.0 mm/h
0.0 271 cm
01:00 Leichter Regen1 15.3 °C 93 %
14.2 °C
1009.8 hPa 4.7 km/h
1 Bft
11.2 km/h
2 Bft
SSW 0.25 mm
0.0 mm/h
0.0 271 cm
01:15 Bedeckt2 15.4 °C 92 %
14.1 °C
1009.7 hPa 3.3 km/h
1 Bft
11.2 km/h
2 Bft
WSW -
0.0 mm/h
0.0 271 cm
01:30 Bedeckt2 15.3 °C 92 %
14.0 °C
1009.8 hPa 4.8 km/h
1 Bft
11.2 km/h
2 Bft
SSW -
0.0 mm/h
0.0 271 cm
01:45 Bedeckt2 15.3 °C 92 %
14.0 °C
1009.7 hPa 3.2 km/h
1 Bft
9.7 km/h
2 Bft
SSO -
0.0 mm/h
0.0 271 cm
02:00 Bedeckt2 15.2 °C 92 %
13.9 °C
1009.7 hPa 3.0 km/h
1 Bft
7.9 km/h
2 Bft
SSW 0.00 mm
0.0 mm/h
0.0 271 cm
02:15 Bedeckt2 15.0 °C 92 %
13.7 °C
1009.7 hPa 4.7 km/h
1 Bft
11.2 km/h
2 Bft
S -
0.0 mm/h
0.0 271 cm
02:30 Bedeckt2 15.0 °C 92 %
13.7 °C
1009.7 hPa 3.2 km/h
1 Bft
7.9 km/h
2 Bft
SSW -
0.0 mm/h
0.0 271 cm
02:45 Bedeckt2 15.0 °C 92 %
13.7 °C
1009.6 hPa 3.2 km/h
1 Bft
9.7 km/h
2 Bft
SSW -
0.0 mm/h
0.0 271 cm
03:00 Bedeckt2 15.0 °C 91 %
13.5 °C
1009.4 hPa 6.5 km/h
2 Bft
9.7 km/h
2 Bft
SW 0.00 mm
0.0 mm/h
0.0 271 cm
03:15 Bedeckt2 14.8 °C 91 %
13.3 °C
1009.6 hPa 4.7 km/h
1 Bft
11.2 km/h
2 Bft
SSW -
0.0 mm/h
0.0 271 cm
03:30 Bedeckt2 14.8 °C 92 %
13.5 °C
1009.7 hPa 4.7 km/h
1 Bft
13.0 km/h
3 Bft
SSW -
0.0 mm/h
0.0 271 cm
03:45 Bedeckt2 14.8 °C 92 %
13.5 °C
1009.7 hPa 4.7 km/h
1 Bft
13.0 km/h
3 Bft
SW -
0.0 mm/h
0.0 271 cm
04:00 Bedeckt2 14.7 °C 90 %
13.1 °C
1009.7 hPa 4.7 km/h
1 Bft
16.2 km/h
3 Bft
WSW 0.00 mm
0.0 mm/h
0.0 271 cm
04:15 Bedeckt2 14.7 °C 90 %
13.1 °C
1009.7 hPa 6.5 km/h
2 Bft
13.0 km/h
3 Bft
SW -
0.0 mm/h
0.0 270 cm
04:30 Bedeckt2 14.5 °C 89 %
12.7 °C
1009.9 hPa 6.5 km/h
2 Bft
16.2 km/h
3 Bft
SW -
0.0 mm/h
0.0 270 cm
04:45 Bedeckt2 14.4 °C 90 %
12.8 °C
1010.1 hPa 3.2 km/h
1 Bft
9.7 km/h
2 Bft
WSW -
0.0 mm/h
0.0 271 cm
05:00 Bedeckt2 14.4 °C 90 %
12.8 °C
1010.1 hPa 4.7 km/h
1 Bft
9.7 km/h
2 Bft
SSW 0.00 mm
0.0 mm/h
0.0 271 cm
05:15 Bedeckt2 14.4 °C 91 %
12.9 °C
1010.1 hPa 1.4 km/h
1 Bft
4.7 km/h
1 Bft
SSW -
0.0 mm/h
0.0 271 cm
05:30 Bedeckt2 14.4 °C 91 %
12.9 °C
1010.1 hPa 1.4 km/h
1 Bft
4.7 km/h
1 Bft
SSW -
0.0 mm/h
0.0 271 cm
05:45 Bedeckt2 14.5 °C 90 %
12.9 °C
1010.0 hPa 1.4 km/h
1 Bft
3.2 km/h
1 Bft
SSW -
0.0 mm/h
0.0 271 cm
06:00 Bedeckt2 14.7 °C 90 %
13.1 °C
1010.1 hPa 0.1 km/h
0 Bft
4.7 km/h
1 Bft
OSO 0.00 mm
0.0 mm/h
0.0 271 cm
06:15 Bedeckt2 14.8 °C 89 %
13.0 °C
1010.2 hPa 0.0 km/h
0 Bft
3.2 km/h
1 Bft
S -
0.0 mm/h
0.0 271 cm
06:30 Bedeckt2 14.9 °C 89 %
13.1 °C
1010.2 hPa 1.4 km/h
1 Bft
7.9 km/h
2 Bft
SSO -
0.0 mm/h
0.0 271 cm
06:45 Bedeckt2 14.9 °C 89 %
13.1 °C
1010.2 hPa 1.4 km/h
1 Bft
4.7 km/h
1 Bft
SSO -
0.0 mm/h
0.0 271 cm
07:00 Stark bewölkt2 15.0 °C 88 %
13.0 °C
1010.4 hPa 3.2 km/h
1 Bft
11.2 km/h
2 Bft
SSW 0.00 mm
0.0 mm/h
0.0 271 cm
07:15 Stark bewölkt2 14.9 °C 87 %
12.8 °C
1010.5 hPa 3.2 km/h
1 Bft
9.7 km/h
2 Bft
SW -
0.0 mm/h
0.0 271 cm
07:30 Wolkig3 15.0 °C 86 %
12.7 °C
1010.7 hPa 3.2 km/h
1 Bft
7.9 km/h
2 Bft
SSW -
0.0 mm/h
0.0 271 cm
07:45 Wolkig3 15.0 °C 86 %
12.7 °C
1010.7 hPa 4.5 km/h
1 Bft
11.2 km/h
2 Bft
SW -
0.0 mm/h
0.0 273 cm
08:00 Wolkig2 15.3 °C 85 %
12.8 °C
1010.7 hPa 3.2 km/h
1 Bft
7.9 km/h
2 Bft
SSW 0.00 mm
0.0 mm/h
0.0 271 cm
08:15 Leicht bewölkt2 15.6 °C 84 %
12.9 °C
1010.7 hPa 1.4 km/h
1 Bft
7.9 km/h
2 Bft
SW -
0.0 mm/h
0.9 272 cm
08:30 Leicht bewölkt2 15.7 °C 83 %
12.8 °C
1010.8 hPa 3.2 km/h
1 Bft
7.9 km/h
2 Bft
SW -
0.0 mm/h
1.2 272 cm
08:45 Leicht bewölkt2 15.8 °C 82 %
12.7 °C
1010.9 hPa 4.7 km/h
1 Bft
13.0 km/h
3 Bft
SSW -
0.0 mm/h
1.4 274 cm
09:00 Leicht bewölkt2 16.0 °C 80 %
12.5 °C
1011.0 hPa 3.1 km/h
1 Bft
7.9 km/h
2 Bft
SO 0.00 mm
0.0 mm/h
1.4 274 cm
09:15 Leicht bewölkt2 16.2 °C 80 %
12.7 °C
1011.1 hPa 3.2 km/h
1 Bft
14.4 km/h
3 Bft
SO -
0.0 mm/h
2.3 274 cm
09:30 Wolkig3 16.5 °C 80 %
13.0 °C
1011.2 hPa 3.2 km/h
1 Bft
11.2 km/h
2 Bft
SSO -
0.0 mm/h
2.6 274 cm
09:45 Wolkig3 17.1 °C 79 %
13.4 °C
1011.2 hPa 4.7 km/h
1 Bft
14.4 km/h
3 Bft
SSW -
0.0 mm/h
3.2 274 cm
10:00 Leicht bewölkt2 17.5 °C 76 %
13.2 °C
1011.2 hPa 3.2 km/h
1 Bft
11.2 km/h
2 Bft
OSO 0.00 mm
0.0 mm/h
3.5 275 cm
10:15 Leicht bewölkt2 18.0 °C 76 %
13.7 °C
1011.2 hPa 3.2 km/h
1 Bft
11.2 km/h
2 Bft
SO -
0.0 mm/h
3.5 275 cm
10:30 Leicht bewölkt2 18.5 °C 75 %
14.0 °C
1011.2 hPa 3.2 km/h
1 Bft
9.7 km/h
2 Bft
S -
0.0 mm/h
3.8 275 cm
10:45 Wolkig3 18.3 °C 72 %
13.2 °C
1011.3 hPa 4.7 km/h
1 Bft
13.0 km/h
3 Bft
S -
0.0 mm/h
4.3 276 cm
11:00 Stark bewölkt2 18.7 °C 72 %
13.5 °C
1011.4 hPa 4.7 km/h
1 Bft
13.0 km/h
3 Bft
OSO 0.00 mm
0.0 mm/h
4.4 276 cm
11:15 Stark bewölkt2 18.5 °C 70 %
12.9 °C
1011.3 hPa 3.2 km/h
1 Bft
9.7 km/h
2 Bft
SSW -
0.0 mm/h
3.0 277 cm
11:30 Stark bewölkt2 18.5 °C 71 %
13.1 °C
1011.3 hPa 4.7 km/h
1 Bft
11.2 km/h
2 Bft
NNW -
0.0 mm/h
2.1 277 cm
11:45 Leicht bewölkt1 19.3 °C 67 %
13.0 °C
1011.2 hPa 3.2 km/h
1 Bft
7.9 km/h
2 Bft
WSW -
0.0 mm/h
5.9 278 cm
12:00 Stark bewölkt2 19.4 °C 66 %
12.9 °C
1011.2 hPa 3.2 km/h
1 Bft
9.7 km/h
2 Bft
WSW 0.00 mm
0.0 mm/h
3.1 278 cm
12:15 Stark bewölkt2 19.0 °C 67 %
12.7 °C
1011.3 hPa 6.5 km/h
2 Bft
16.2 km/h
3 Bft
NW -
0.0 mm/h
1.9 278 cm
12:30 Wolkig1 19.2 °C 66 %
12.7 °C
1011.2 hPa 4.7 km/h
1 Bft
13.0 km/h
3 Bft
SSW -
0.0 mm/h
4.0 278 cm
12:45 Wolkig1 20.0 °C 66 %
13.4 °C
1011.2 hPa 3.4 km/h
1 Bft
11.2 km/h
2 Bft
WSW -
0.0 mm/h
5.0 279 cm
13:00 Wolkig1 20.2 °C 61 %
12.4 °C
1011.1 hPa 1.4 km/h
1 Bft
7.9 km/h
2 Bft
N 0.00 mm
0.0 mm/h
4.8 279 cm
13:15 Wolkig2 20.9 °C 58 %
12.3 °C
1011.0 hPa 3.2 km/h
1 Bft
11.2 km/h
2 Bft
NNW -
0.0 mm/h
7.0 279 cm
13:30 Wolkig2 21.1 °C 55 %
11.7 °C
1011.0 hPa 4.7 km/h
1 Bft
9.7 km/h
2 Bft
WNW -
0.0 mm/h
7.3 279 cm
13:45 Wolkig3 21.2 °C 56 %
12.1 °C
1010.9 hPa 3.2 km/h
1 Bft
7.9 km/h
2 Bft
SW -
0.0 mm/h
6.2 279 cm
14:00 Wolkig1 21.5 °C 52 %
11.2 °C
1010.9 hPa 3.2 km/h
1 Bft
9.7 km/h
2 Bft
S 0.00 mm
0.0 mm/h
4.2 280 cm
14:15 Wolkig1 21.8 °C 50 %
10.9 °C
1010.9 hPa 4.7 km/h
1 Bft
9.7 km/h
2 Bft
SW -
0.0 mm/h
6.0 281 cm
14:30 Stark bewölkt3 22.3 °C 47 %
10.4 °C
1010.9 hPa 4.5 km/h
1 Bft
14.4 km/h
3 Bft
SSW -
0.0 mm/h
5.7 282 cm
14:45 Stark bewölkt3 21.3 °C 52 %
11.0 °C
1010.9 hPa 4.7 km/h
1 Bft
14.4 km/h
3 Bft
NW -
0.0 mm/h
2.6 281 cm
15:00 Stark bewölkt3 21.2 °C 53 %
11.2 °C
1011.0 hPa 3.5 km/h
1 Bft
13.0 km/h
3 Bft
NNO 0.00 mm
0.0 mm/h
2.1 282 cm
15:15 Bedeckt2 21.9 °C 53 %
11.9 °C
1010.9 hPa 1.4 km/h
1 Bft
4.7 km/h
1 Bft
OSO -
0.0 mm/h
2.1 282 cm
15:30 Bedeckt2 22.4 °C 54 %
12.6 °C
1010.9 hPa 1.4 km/h
1 Bft
6.5 km/h
2 Bft
OSO -
0.0 mm/h
2.5 282 cm
15:45 Bedeckt2 22.3 °C 50 %
11.4 °C
1010.8 hPa 3.2 km/h
1 Bft
7.9 km/h
2 Bft
OSO -
0.0 mm/h
3.0 282 cm
16:00 Bedeckt2 22.1 °C 52 %
11.8 °C
1010.7 hPa 3.2 km/h
1 Bft
7.9 km/h
2 Bft
SO 0.00 mm
0.0 mm/h
2.5 282 cm
16:15 Bedeckt2 21.8 °C 54 %
12.1 °C
1010.8 hPa 0.0 km/h
0 Bft
4.7 km/h
1 Bft
OSO -
0.0 mm/h
1.2 283 cm
16:30 Stark bewölkt2 22.2 °C 51 %
11.6 °C
1010.8 hPa 0.0 km/h
0 Bft
3.2 km/h
1 Bft
N -
0.0 mm/h
2.0 283 cm
16:45 Stark bewölkt2 22.3 °C 52 %
12.0 °C
1010.7 hPa 4.7 km/h
1 Bft
11.2 km/h
2 Bft
NNW -
0.0 mm/h
2.3 284 cm
17:00 Stark bewölkt2 22.1 °C 53 %
12.1 °C
1010.7 hPa 4.7 km/h
1 Bft
14.4 km/h
3 Bft
NO 0.00 mm
0.0 mm/h
1.9 283 cm
17:15 Stark bewölkt2 21.7 °C 54 %
12.0 °C
1010.7 hPa 6.5 km/h
2 Bft
16.2 km/h
3 Bft
NNO -
0.0 mm/h
1.4 283 cm
17:30 Stark bewölkt2 21.7 °C 55 %
12.3 °C
1010.7 hPa 7.9 km/h
2 Bft
13.0 km/h
3 Bft
NNO -
0.0 mm/h
1.3 284 cm
17:45 Stark bewölkt2 21.9 °C 56 %
12.7 °C
1010.7 hPa 6.5 km/h
2 Bft
14.4 km/h
3 Bft
NO -
0.0 mm/h
1.5 284 cm
18:00 Wolkig3 21.9 °C 55 %
12.4 °C
1010.6 hPa 6.5 km/h
2 Bft
14.4 km/h
3 Bft
ONO 0.00 mm
0.0 mm/h
1.5 284 cm
18:15 Wolkig3 21.9 °C 55 %
12.4 °C
1010.6 hPa 6.6 km/h
2 Bft
14.4 km/h
3 Bft
NO -
0.0 mm/h
1.3 284 cm
18:30 Wolkig3 21.9 °C 54 %
12.2 °C
1010.6 hPa 3.2 km/h
1 Bft
9.7 km/h
2 Bft
ONO -
0.0 mm/h
1.2 286 cm
18:45 Wolkig3 21.9 °C 55 %
12.4 °C
1010.5 hPa 3.4 km/h
1 Bft
7.9 km/h
2 Bft
ONO -
0.0 mm/h
1.2 286 cm
19:00 Wolkig3 21.8 °C 55 %
12.4 °C
1010.4 hPa 3.2 km/h
1 Bft
9.7 km/h
2 Bft
OSO 0.00 mm
0.0 mm/h
1.1 286 cm
19:15 Wolkig3 21.8 °C 56 %
12.6 °C
1010.5 hPa 3.2 km/h
1 Bft
7.9 km/h
2 Bft
ONO -
0.0 mm/h
1.0 286 cm
19:30 Bedeckt2 21.6 °C 56 %
12.4 °C
1010.6 hPa 3.2 km/h
1 Bft
9.7 km/h
2 Bft
O -
0.0 mm/h
0.8 286 cm
19:45 Bedeckt2 21.4 °C 56 %
12.3 °C
1010.8 hPa 3.2 km/h
1 Bft
11.2 km/h
2 Bft
ONO -
0.0 mm/h
0.5 286 cm
20:00 Gewitter2 21.1 °C 58 %
12.5 °C
1010.9 hPa 4.7 km/h
1 Bft
14.4 km/h
3 Bft
SSW 0.00 mm
0.0 mm/h
0.0 286 cm
20:15 Leichter Regen4 18.7 °C 70 %
13.1 °C
1011.5 hPa 6.5 km/h
2 Bft
17.6 km/h
3 Bft
S -
0.0 mm/h
0.0 286 cm
20:30 Leichter Regen1 17.1 °C 80 %
13.6 °C
1011.6 hPa 1.6 km/h
1 Bft
11.2 km/h
2 Bft
WNW -
3.8 mm/h
0.0 286 cm
20:45 Gewitter2 16.8 °C 84 %
14.1 °C
1011.5 hPa 4.7 km/h
1 Bft
11.2 km/h
2 Bft
NNO -
5.6 mm/h
0.0 287 cm
21:00 Bedeckt2 16.8 °C 83 %
13.9 °C
1011.6 hPa 3.2 km/h
1 Bft
7.9 km/h
2 Bft
NNO 1.33 mm
1.4 mm/h
0.0 287 cm
21:15 Bedeckt2 16.9 °C 83 %
14.0 °C
1011.7 hPa 0.0 km/h
0 Bft
4.7 km/h
1 Bft
N -
0.0 mm/h
0.0 287 cm
21:30 Wolkig3 17.0 °C 85 %
14.5 °C
1011.6 hPa 0.0 km/h
0 Bft
3.2 km/h
1 Bft
N -
0.0 mm/h
0.0 288 cm
21:45 Wolkig2 17.1 °C 82 %
14.0 °C
1011.7 hPa 0.0 km/h
0 Bft
0.0 km/h
0 Bft
N -
0.0 mm/h
0.0 289 cm
22:00 Wolkig3 16.8 °C 85 %
14.3 °C
1012.2 hPa 3.2 km/h
1 Bft
16.2 km/h
3 Bft
NW 0.00 mm
0.0 mm/h
0.0 287 cm
22:15 Wolkig3 16.4 °C 82 %
13.3 °C
1012.4 hPa 4.7 km/h
1 Bft
9.7 km/h
2 Bft
SW -
0.0 mm/h
0.0 287 cm
22:30 Bedeckt2 16.3 °C 82 %
13.2 °C
1012.6 hPa 3.2 km/h
1 Bft
9.7 km/h
2 Bft
NW -
0.0 mm/h
0.0 287 cm
22:45 Stark bewölkt3 16.3 °C 84 %
13.6 °C
1012.8 hPa 3.1 km/h
1 Bft
9.7 km/h
2 Bft
SSW -
0.0 mm/h
0.0 287 cm
23:00 Leichter Regen4 16.3 °C 84 %
13.6 °C
1013.0 hPa 4.6 km/h
1 Bft
11.2 km/h
2 Bft
SSW 0.28 mm
0.0 mm/h
0.0 287 cm
23:15 Leichter Regen1 15.8 °C 85 %
13.3 °C
1013.1 hPa 4.7 km/h
1 Bft
11.2 km/h
2 Bft
SSW -
0.0 mm/h
0.0 287 cm
23:30 Leichter Regen1 15.6 °C 85 %
13.1 °C
1013.2 hPa 1.4 km/h
1 Bft
7.9 km/h
2 Bft
SSO -
0.8 mm/h
0.0 287 cm
23:45 Leichter Regen1 15.6 °C 87 %
13.4 °C
1013.3 hPa 1.4 km/h
1 Bft
4.7 km/h
1 Bft
SO -
0.8 mm/h
0.0 288 cm
00:00 Leichter Regen1 15.7 °C 87 %
13.5 °C
1013.3 hPa 0.0 km/h
0 Bft
1.4 km/h
1 Bft
SO 0.75 mm
2.0 mm/h
0.0 290 cm
Datenbasis Wetterzustand: ¹ Wetterstation Köln-Nippes (Stellwerk), ² powered by , ³ powered by OpenWeatherMap, CC BY-SA 4.0; Warnlage: DWD, Pegelonline, LANUV; Pegel Köln: Pegelonline
 
Extrem- und Durchschnittswerte
  Temperatur Luftfeuchte Luftdruck Wind Windböen Wind-
richtung
Regen UV-Index Pegel Köln KKT
Min

Max

Ø
14.3 °C
04:53 Uhr
23.3 °C
14:25 Uhr
18.0 °C
47.0 %
14:22 Uhr
93.0 %
00:00 Uhr
74.0 %
1009.4 hPa
02:51 Uhr
1013.3 hPa
23:37 Uhr
1010.8 hPa
 
 
7.9 km/h
17:10 Uhr
3.6 km/h
 
 
17.6 km/h
20:10 Uhr
 
 
 
SSW
 
 
 
 
2.61 mm
 
 
 
 
7.3
13:25 Uhr
 
270 cm
00:15 Uhr
290 cm
00:00 Uhr
 

NT
  Taupunkt   Wind Windböen   Regenrate Ozon Sonne Mond
Min

Max

Ø
10.2 °C
14:31 Uhr
14.6 °C
21:52 Uhr
12.8 °C
   
 
2 Bft
17:10 Uhr
3.6 km/h
 
 
3 Bft
20:10 Uhr
 
   
 
5.6 mm/h
20:29 Uhr
 
 
Chorweiler
91 μg/m³
16:00 Uhr
 
▲ 05:17 Uhr
▼ 21:50 Uhr
▲ 03:45 Uhr
▼ 18:55 Uhr
KKT = Klimatologischer Kenntag: ET = Eistag, FT = Frosttag, KT = Kalter Tag, ST = Sommertag, HT = Hitzetag, TN = Tropennacht, NT = Niederschlagstag, SH = Schneehöhe (Max Tag); Datenbasis Ozon: LANUV, Land NRW, dl-de/by-2-0
Für dieses Datum steht leider (noch) kein Tagesrückblick zur Verfügung.
 
Tagesgrafik
Grafik zum Vergrößern anklicken
 
Detaillierte Warnlage
STARKES GEWITTER
18.06.20, 19:34 Uhr bis 20:00 Uhr
Es treten Gewitter auf. Dabei gibt es Starkregen mit Niederschlagsmengen bis 15 l/m² pro Stunde sowie Windböen mit Geschwindigkeiten bis 60 km/h (17m/s, 33kn, Bft 7). ACHTUNG! Hinweis auf mögliche Gefahren: Örtlich kann es Blitzschlag geben. Bei Blitzschlag besteht Lebensgefahr! Während des Platzregens sind kurzzeitig Verkehrsbehinderungen möglich.
STARKES GEWITTER
18.06.20, 20:20 Uhr bis 20:45 Uhr
Es treten Gewitter auf. Dabei gibt es Starkregen mit Niederschlagsmengen bis 15 l/m² pro Stunde sowie Windböen mit Geschwindigkeiten bis 60 km/h (17m/s, 33kn, Bft 7). ACHTUNG! Hinweis auf mögliche Gefahren: Örtlich kann es Blitzschlag geben. Bei Blitzschlag besteht Lebensgefahr! Während des Platzregens sind kurzzeitig Verkehrsbehinderungen möglich.
GEWITTER
18.06.20, 21:12 Uhr bis 21:30 Uhr
Es treten Gewitter auf. Dabei gibt es Windböen mit Geschwindigkeiten bis 60 km/h (17m/s, 33kn, Bft 7). ACHTUNG! Hinweis auf mögliche Gefahren: Örtlich kann es Blitzschlag geben. Bei Blitzschlag besteht Lebensgefahr!
GEWITTER
18.06.20, 21:33 Uhr bis 22:00 Uhr
Es treten Gewitter auf. Dabei gibt es Windböen mit Geschwindigkeiten bis 60 km/h (17m/s, 33kn, Bft 7). ACHTUNG! Hinweis auf mögliche Gefahren: Örtlich kann es Blitzschlag geben. Bei Blitzschlag besteht Lebensgefahr!
STARKES GEWITTER
18.06.20, 22:24 Uhr bis 23:30 Uhr
Es treten Gewitter auf. Dabei gibt es Starkregen mit Niederschlagsmengen um 15 l/m² pro Stunde sowie Windböen mit Geschwindigkeiten bis 60 km/h (17m/s, 33kn, Bft 7). ACHTUNG! Hinweis auf mögliche Gefahren: Örtlich kann es Blitzschlag geben. Bei Blitzschlag besteht Lebensgefahr! Während des Platzregens sind kurzzeitig Verkehrsbehinderungen möglich.











18.06.20

18.06.20

18.06.20

18.06.20

18.06.20

18.06.20

18.06.20
Datenbasis: DWD, Pegelonline, LANUV


Zurück zur Eingabemaske